Tracking 29892 objects as of 21-Nov-2024
HD Live streaming from Space Station
objects crossing your sky now

OPS 5798 DEB

Track OPS 5798 DEB now!
10-day predictions


NORAD ID: 903
Int'l Code: 1964-063F
Perigee: 955.7 km
Apogee: 990.2 km
Inclination: 90.2 °
Period: 104.4 minutes
Semi major axis: 7343 km
RCS: 0.0502 m2 (small)
Launch date: October 6, 1964
Source: United States (US)
Launch site: AIR FORCE WESTERN TEST RANGE (AFWTR)

Note: This is SATELLITE DEBRIS
Your satellite tracking list
Your tracking list is empty




NASA's NSSDC Master Catalog

Two Line Element Set (TLE):
1 00903U 64063F   24324.04722368  .00001287  00000-0  12394-2 0  9997
2 00903  90.2135  57.8167 0023480  60.8764 113.9108 13.79463742995042
Source of the keplerian elements: AFSPC